sat.trackr.live / text

‹ back to catalog

STARLINK-3207

NORAD 49756 · 2021-115AJ

PAYLOAD ACTIVE UNKNOWN

§ Identity

Operator
Country
US
Launch date
2021-12-02
Launch site
AFETR
Launch vehicle
Mass (kg)
RCS (m²)

Purposes: comms

External: N2YO · Heavens-Above · Gunter

§ Orbital elements

Epoch: 2026-09-12T13:55:38.203392Z

Period
93.85 min
Inclination
53.1620°
Eccentricity
0.0001056
Mean motion
15.34390096 rev/d
Perigee alt
462.0 km
Apogee alt
463.5 km
Semi-major
6,840.9 km
B*
1.1239e-5
RAAN
6.5142°
Arg perigee
80.3085°
Mean anomaly
279.8037°
Rev number
26,407

§ Raw data

STARLINK-32071 49756U 21115AJ  26255.58030328  .00000004  00000+0  11239-4 0  99932 49756  53.1620   6.5142 0001056  80.3085 279.8037 15.34390096264079

JSON: /api/v1/satellites/49756 · /tle

For live sub-satellite position, see the globe view (requires WebGL).

§ Visibility from observer

Set your observer location to see the next 7 days of passes ≥ 10°. The values pass through the URL so the page stays shareable.

No JS? Fill the form by hand. The geolocation button needs JavaScript.